Location: Egnach
(47.5427°N, 9.3805°E)
Time: 01:01:19
(UTC+00:00)

Daily predictions for brighter satellites

Satellite Brightness Start Highest point End
(mag) Time Altitude Azimuth Time Altitude Azimuth Time Altitude Azimuth
CENTAUR R/B 4.5 02:28:55 23° E 02:28:55 23° E 02:32:53 10° ENE
Cosmos 2344 4.0 02:53:31 53° E 02:53:31 53° E 03:00:17 10° NE
USA 215 3.6 03:19:21 10° E 03:25:42 57° NNE 03:25:42 57° NNE
Cosmos 2369 Rocket 4.1 03:33:25 10° SSE 03:38:00 27° ESE 03:42:38 10° NE
NOSS 3-3 (A) 4.4 03:44:28 72° WNW 03:45:24 84° SW 03:53:54 10° SE
NOSS 3-3 (C) 4.4 03:44:32 71° NW 03:45:30 84° SW 03:53:59 10° SE
COSMO-SKYMED 1 4.2 03:43:57 10° SE 03:47:48 32° ENE 03:48:36 30° NE
Cosmos 1867 4.3 03:50:15 46° SSE 03:50:15 46° SSE 03:54:01 10° SSE
MOS 1-B Rocket 4.3 03:44:47 10° SSE 03:50:58 61° ENE 03:54:14 26° N
Cosmos 2208 Rocket 4.4 03:52:18 61° SE 03:52:18 61° SE 03:56:43 10° SSE
Tsikada Rocket 4.2 03:46:31 10° S 03:52:39 69° E 03:58:54 10° NNE
Gblst 52 Del rocket 4.3 03:54:35 83° S 03:54:44 84° SSE 04:01:25 10° ENE
Cosmos 1943 Rocket 2.0 04:06:38 78° SW 04:07:03 87° WNW 04:12:45 10° NNE
CZ-2C R/B 3.2 04:03:34 10° SSE 04:08:56 58° ENE 04:13:24 15° N
Cosmos 1241 Rocket 4.3 04:10:32 68° W 04:11:00 71° WSW 04:17:09 10° SSE
SL-19 R/B 4.2 04:05:34 10° SSE 04:11:11 86° ENE 04:13:20 40° NNW
SL-8 R/B 3.6 04:16:23 83° NE 04:16:23 83° NE 04:21:04 10° E
CENTAUR R/B 2.4 04:16:08 56° WSW 04:17:31 76° NW 04:24:45 10° NE
Cosmos 2297 3.6 04:21:07 59° WSW 04:21:59 69° WNW 04:27:44 10° NNE
Iridium 2 4.2 04:23:16 10° S 04:26:59 57° E 04:30:43 10° NNE
NOSS 3-2 (A) 3.4 04:27:49 51° WNW 04:28:37 55° NW 04:35:08 10° NE
Cosmos 2278 Rocket 3.9 04:33:50 17° NNW 04:33:50 17° NNW 04:35:58 10° N
Envisat 3.0 04:30:17 10° NNE 04:35:24 82° ESE 04:40:30 10° SSW
SKYMED 2 3.4 04:31:23 10° SSE 04:35:44 86° W 04:37:12 42° NNW
NOSS 3-2 (C) 3.2 04:33:35 36° SW 04:36:02 76° NW 04:42:37 10° NE
Meteor 2-6 Rocket 4.4 04:30:41 10° N 04:36:07 67° ENE 04:41:28 10° SSE
Cosmos 2098 Rocket 3.1 04:38:04 10° S 04:41:55 80° E 04:46:50 10° N
Meteor 2-3 Rocket 3.8 04:37:08 10° SSW 04:42:39 53° WNW 04:48:18 10° N
Landsat 5 3.6 04:40:51 10° SSE 04:45:22 88° WSW 04:48:26 20° NNW
Cosmos 968 Rocket 3.4 04:42:38 21° SW 04:46:04 63° WNW 04:51:11 10° NNE
Meteor 2-13 Rocket 4.3 04:40:58 10° SSW 04:47:04 73° W 04:53:11 10° N
CZ-4B R/B 4.1 04:43:27 10° NNE 04:47:55 88° ESE 04:52:24 10° SSW
Genesis I 4.1 04:49:24 35° SW 04:49:24 35° SW 04:52:39 10° S
FALCON 9 DEB 4.1 04:49:58 30° NNE 04:49:58 30° NNE 04:51:48 10° NE
Cosmos 921 Rocket 3.2 04:50:35 48° W 04:51:05 50° WSW 04:55:23 10° S
Meteor 1-10 Rocket 4.5 04:46:32 10° N 04:52:06 67° ENE 04:57:36 10° SSE
Okean 3 Rocket 3.7 04:49:03 10° S 04:53:33 77° E 04:58:08 10° NNE
ATLAS 5 CENTAUR R/B 4.5 04:53:17 10° SSE 04:55:28 15° ESE 04:57:45 10° ENE
DNEPR-1 R/B 3.8 04:53:15 32° NW 04:55:31 86° SW 05:01:09 10° SE
Cosmos 1833 4.3 04:51:16 18° NNW 04:55:36 82° ENE 05:01:20 10° SSE
H-2A R/B 3.4 04:52:06 10° SE 04:56:04 39° ENE 05:00:08 10° N
Cosmos 1812 2.7 04:56:57 49° WNW 04:57:24 52° W 05:01:08 10° S
CBERS 1 LM4 rocket 4.3 04:53:46 10° NNE 04:58:37 77° WNW 05:03:36 10° SSW
ADEOS 3.9 04:53:42 10° NNE 04:58:56 69° ESE 05:04:07 10° S
Cosmos 2142 Rocket 4.5 04:57:46 10° NNW 05:04:05 70° W 05:10:25 10° S
Cosmos 1151 Rocket 3.1 05:01:35 22° NNW 05:04:15 55° W 05:08:31 10° S
USA 238 DEB 3.8 05:00:11 22° WSW 05:04:19 53° NW 05:11:07 10° NE
USA 238 3.8 05:00:14 22° WSW 05:04:25 53° NW 05:11:13 10° NE
Cosmos 1766 Rocket 3.4 05:02:27 10° SSW 05:06:46 70° W 05:11:07 10° N
CZ-2C R/B 3.7 05:02:08 10° NNE 05:06:55 55° E 05:11:51 10° S
Cosmos 2344 4.0 05:03:34 25° W 05:07:30 43° NNW 05:15:17 10° NE
Cosmos 2263 4.2 05:02:07 10° SSW 05:07:48 87° WNW 05:13:36 10° NNE
USA 215 3.3 05:02:14 10° SE 05:08:42 63° SW 05:13:03 22° WNW
Meteor PRIRODA 4.2 05:08:40 10° NNE 05:12:15 59° E 05:15:50 10° S
Meteor 1-31 Rocket 2.9 05:10:03 10° N 05:13:48 48° WNW 05:17:34 10° SW
Cosmos 2279 Rocket 4.0 05:08:44 10° NNW 05:14:50 61° W 05:20:54 10° S
Cosmos 2297 Rocket 4.2 05:11:26 10° N 05:15:43 21° NE 05:19:58 10° E
Cosmos 1328 Rocket 3.6 05:12:41 10° NNW 05:16:56 57° W 05:21:12 10° S
IRAS Rocket 4.1 05:11:58 10° SSE 05:17:29 82° WSW 05:23:01 10° NNW
BREEZE-M DEB (TANK) 4.2 05:05:55 10° SW 05:18:07 51° SSE 05:21:42 10° E
Cosmos 2369 Rocket 2.3 05:16:15 10° SW 05:21:42 53° WNW 05:27:12 10° NNE
FALCON 9 DEB 3.5 05:21:07 31° WNW 05:22:15 45° NNW 05:25:32 10° ENE
SMAP 4.4 05:18:11 10° NNE 05:22:39 43° E 05:27:04 10° S
Cosmos 1862 3.5 05:19:18 10° SSW 05:23:06 45° WNW 05:26:56 10° N
COSMO-SKYMED 1 3.4 05:20:13 10° SSW 05:23:58 28° W 05:25:48 21° NW
Nadezhda 4 Rocket 4.2 05:20:02 10° S 05:26:10 77° E 05:32:25 10° NNE
H-2A R/B 3.7 05:24:04 10° NNW 05:27:07 25° WNW 05:30:11 10° WSW
H-2A R/B 4.1 05:29:33 10° NE 05:33:50 29° E 05:38:06 10° SSE
Meteor 2-15 Rocket 4.4 05:28:30 10° NNW 05:34:36 81° W 05:40:40 10° S
Cosmos 2228 Rocket 4.2 05:30:43 10° N 05:35:04 47° ENE 05:39:25 10° SSE
CZ-4B R/B 2.4 05:33:02 10° N 05:36:38 80° WNW 05:40:12 10° SSW
Lacrosse 4 Rocket 4.1 05:36:29 10° NNE 05:37:47 11° NNE 05:39:06 10° NE
CZ-4B R/B 2.2 05:36:33 10° SSE 05:39:48 51° ENE 05:43:01 10° N
Cosmos 1408 Rocket 3.5 05:37:54 10° SSW 05:42:10 63° WNW 05:46:27 10° N
CZ-4C R/B 4.2 05:42:34 10° SW 05:44:57 20° W 05:46:01 17° WNW
DMSP B5D2-2 4.2 05:40:11 10° S 05:45:15 52° W 05:50:22 10° NNW
Cosmos 1656 Rocket 3.8 05:40:12 10° SW 05:45:24 47° NW 05:50:41 10° NNE
Cosmos 1503 Rocket 4.1 05:40:32 10° SW 05:45:43 55° WNW 05:50:59 10° NNE
USA 32 4.2 05:41:24 10° N 05:46:41 79° E 05:51:55 10° S
Cosmos 1743 Rocket 3.6 05:45:05 10° S 05:49:29 84° E 05:53:52 10° N
CZ-2C R/B 3.8 05:45:20 10° SW 05:49:35 23° W 05:53:47 10° NW
Cosmos 2227 Rocket 3.9 05:46:29 10° N 05:51:13 26° NE 05:55:55 10° ESE
Cosmos 1943 Rocket 3.5 05:48:15 12° W 05:51:38 20° NW 05:55:44 10° N
FAST Rocket 3.9 05:49:04 10° S 05:51:40 85° WNW 05:54:43 10° N
Cosmos 1515 Rocket 4.0 05:53:07 10° NNW 05:57:12 39° W 06:01:14 10° SSW
PSLV R/B 4.2 05:53:10 10° SSE 05:57:12 73° ENE 06:01:18 10° N
Cosmos 1777 Rocket 4.0 05:52:09 10° SSW 05:57:22 89° WNW 06:02:39 10° NNE
SL-8 R/B 4.3 05:54:22 12° W 05:58:40 47° SSW 06:03:14 10° SE
FALCON 9 DEB 4.0 05:56:51 13° WNW 05:58:52 26° N 06:01:23 10° ENE
CORIOLIS 4.4 05:54:34 10° NNE 06:00:04 77° ESE 06:05:30 10° S
Meteor 1-27 Rocket 3.9 05:54:47 10° NNW 06:00:17 56° W 06:05:52 10° S
Cosmos 1602 4.0 05:58:07 10° S 06:01:54 72° E 06:05:43 10° NNE
NOAA 6 4.1 05:57:01 10° NNE 06:02:10 89° ESE 06:07:17 10° SSW
COSMOS 2487 2.5 06:01:13 10° NNW 06:04:35 76° ENE 06:07:55 10° SSE
Cosmos 773 Rocket 4.4 05:59:56 10° NNW 06:04:54 45° WSW 06:09:48 10° S
FALCON 9 DEB 4.0 06:03:16 11° NW 06:05:32 25° N 06:08:01 10° ENE
SJ 16-02 1.3 06:02:32 10° SSW 06:06:55 76° WNW 06:11:19 10° NNE
FALCON 9 DEB 4.0 06:05:15 11° NW 06:07:38 26° N 06:10:07 10° ENE
CENTAUR R/B 3.7 06:03:51 10° W 06:09:29 29° NNW 06:16:02 10° NE
Alouette 2 Rocket 3.3 06:06:56 10° NNW 06:10:47 54° W 06:14:14 10° S
Cosmos 1689 Rocket 4.4 06:11:10 10° ESE 06:13:08 19° ENE 06:15:06 10° NNE
NOAA 12 4.3 06:08:08 10° N 06:13:14 50° WNW 06:18:17 10° SW
Envisat 4.4 06:10:40 10° NNW 06:13:47 17° WNW 06:16:54 10° W
Cosmos 1340 Rocket 2.9 06:11:10 10° SSW 06:15:01 51° WNW 06:18:56 10° N
SL-27 R/B 3.6 06:15:00 10° NW 06:18:04 27° WSW 06:21:07 10° SSW
Cosmos 1500 Rocket 3.9 06:14:09 10° SSW 06:18:27 47° WNW 06:22:47 10° N
Cosmos 1939 Rocket 3.3 06:16:10 10° N 06:19:50 38° WNW 06:23:27 10° SW
Cosmos 2219 4.4 06:16:45 10° NNW 06:22:04 40° NE 06:27:23 10° ESE
